User: anonymous   Login
Location: Newark
(40.9833°N, 0.0333°W)
Time: 03:30:17
(UTC+00:00)
Language:

DOVE 4 - Orbit

View from above orbital plane
View from above orbital plane
View from above satellite
View from above satellite

Ground track
Ground track

The orbit data is extracted from the following two-line orbital elements,

1 39430U 13066Q   19142.81190664  .00000191  00000-0  43849-4 0  9990
2 39430  97.7442 101.1380 0151115 339.6118  19.9091 14.59241856292684
Epoch (UTC): 22 May 2019 19:29:08
Eccentricity: 0.0151115
inclination: 97.7442°
perigee height: 589 km
apogee height: 802 km
right ascension of ascending node: 101.1380°
argument of perigee: 339.6118°
revolutions per day: 14.59241856
mean anomaly at epoch: 19.9091°
orbit number at epoch: 29268

The dashed part of the orbit path shows where the satellite is in the earth's shadow,  

DLR